Location: Ammerl�gen
(47.2167°N, 9.6000°E)
Time: 11:43:21
(UTC+00:00)

CZ-4 R/B DEB - Pass Details

Date: 20 October 2021
Orbit: 738 x 791 km, 98.5° (Epoch: 26 November)

Event Time Altitude Azimuth Distance (km) Brightness Sun altitude
Exits shadow 19:45:33 31° 269° (W) 1,273 ? -34.3°
Drops below altitude 10° 19:49:45 10° 327° (NNW) 2,257 ? -34.9°
Sets 19:52:18 0° 338° (NNW) 3,187 ? -35.3°
